Regional Weather Roundup
Issued by NWS Northern Indiana

Home | Current Version | Previous Version | Graphics & Text | Print | Product List | Glossary On
Versions: 1 2 3 4 5 6 7 8 9 10 11 12 13 14 15 16 17 18 19 20 21 22 23 24 25 26 27 28 29 30 31 32 33 34 35 36 37 38 39 40 41 42 43 44 45 46 47 48 49 50
000
ASUS43 KIWX 250910
RWRIWX

KIWX WEATHER ROUNDUP
NATIONAL WEATHER SERVICE NORTHERN INDIANA
500 AM EDT SAT MAR 25 2017

NOTE: "FAIR" INDICATES FEW OR NO CLOUDS BELOW 12,000 FEET WITH NO
SIGNIFICANT WEATHER AND/OR OBSTRUCTIONS TO VISIBILITY.

* THESE STATIONS ARE NOT UNDER NWS QUALITY CONTROL. THEY ALSO MAY NOT
  REPORT WEATHER SUCH AS PRECIPITATION OR FOG.

INZ001>027-251000-
NORTHERN INDIANA

CITY           SKY/WX    TMP DP  RH WIND       PRES   REMARKS
GARY*          CLOUDY    40  38  93 N9        30.04F
VALPARAISO     CLOUDY    41  40  96 N6        30.03F
MICHIGAN CITY* LGT RAIN  37  37 100 N5        30.04F
LAPORTE*       CLOUDY    41  40  97 CALM      30.03F FOG
KNOX*          CLOUDY    43  30  61 N7        30.03R
SOUTH BEND     RAIN      42  41  96 NW9       30.05R FOG
GOSHEN         CLOUDY    54  50  86 CALM      30.01S
MONTICELLO*    MOCLDY    56  51  84 CALM      29.99F
LOGANSPORT*    MOCLDY    54  50  87 S7        30.01F
ROCHESTER*     MOCLDY    57  52  82 CALM      30.02S
WARSAW*        CLOUDY    57  50  77 CALM      30.01F
ANGOLA*        CLOUDY    55  54  94 CALM      30.02F
FORT WAYNE     CLOUDY    56  51  84 S8        30.02F
HUNTINGTON*    CLOUDY    59  52  77 S7        30.02S
PERU/GRISSOM   MOCLDY    57  54  88 S8        29.99F
MARION*        CLOUDY    58  52  79 S8        30.03F

$$
INZ028>050-251000-
CENTRAL INDIANA

CITY           SKY/WX    TMP DP  RH WIND       PRES   REMARKS
LAFAYETTE      CLOUDY    59  52  77 E6        29.97F
KOKOMO*        CLOUDY    56  51  84 SE8       30.02F
MUNCIE*        CLOUDY    63  52  67 S10       30.04F
INDIANAPOLIS   MOCLDY    60  52  74 SE8       30.01F

$$
MIZ043>046-050>051-056>058-064>065-071>073-077>080-251000-
SOUTHWEST LOWER MICHIGAN

CITY           SKY/WX    TMP DP  RH WIND       PRES   REMARKS
BATTLE CREEK   CLOUDY    44  43  96 NE9       30.06S
BENTON HARBOR  LGT RAIN  42  41  96 CALM      30.03F FOG
COLDWATER*     CLOUDY    48  44  84 NE6       30.04S
HILLSDALE*     CLOUDY    48  43  81 E6        30.04S
HOLLAND        LGT RAIN  42  37  82 E10       30.06F
GRAND RAPIDS   LGT RAIN  40  36  86 E15       30.07F
KALAMAZOO      LGT RAIN  45  42  89 NE6       30.05R FOG
STURGIS*       CLOUDY    51  46  82 NE8       30.02S
THREE RIVERS*  CLOUDY    48  45  89 NE8       30.04S

$$
OHZ001>008-015>018-024>025-251000-
NORTHWEST OHIO

CITY           SKY/WX    TMP DP  RH WIND       PRES   REMARKS
WAUSEON*       CLOUDY    48  45  87 E8        30.06S
DEFIANCE       CLOUDY    55  50  83 CALM      30.04S
FINDLAY        MOCLDY    61  51  70 SW10      30.04F
TOLEDO EXPRESS CLOUDY    46  40  79 E8        30.07S
TOLEDO METCALF MOCLDY    45  40  82 E5        30.09S
LIMA           MOCLDY    61  53  75 S8        30.06S

$$
AND FOR LAKE MICHIGAN COASTAL AND OPEN LAKE BUOY OBSERVATIONS

STATION/POSITION TEMP    WIND        PRES    VSBY  WAVE
                 AIR SEA DIR/SP/G                  HT/PER
                 (F)     (DEG/KT/KT) (MB)    (MI)  (FT/S)
CALUMET HARBOR           340/ 14/ 18 1016.4F
MICHIGAN CITY     38     280/  5/  6   N/A
BURNS HARBOR      38     330/  5/  7 1017.9F
SAINT JOSEPH      40      CALM  /  1 1018.3

$$
&&




USA.gov is the U.S. government's official web portal to all federal, state and local government web resources and services.